CAPE
2416 2435 2336 2056 1968 2031 1921 1984 1868 1828 1887 2015 2300 2248 2356 2252 2044 2098 2310 2302 2314 2287 2303 2191 2533 2720 2477 2563 2234 2302 2880 2883 2740 2892 3251 3529 3368 3225 3175 3599 3799 3510 3316 3244 2753 2675 3022 3238 3307 3090 3020 2824 2530 2276 2010 1966 2265 2551 2834 3020 2830 2887 3307 4028 3798 3119 3127 2466 1608 969 406 610 142 542 585 639 521 1088 1295 1165 1375 1101 1507 1662 2461
2294 2568 2694 2368 1912 1870 1682 1807 1972 1958 1820 2000 2057 2187 2281 2303 2249 2552 2468 2674 2619 2391 2543 2498 2370 2419 2614 2566 2779 2644 2930 3323 2724 2588 2759 3082 3143 2760 3104 3247 3338 3331 3062 2985 2811 2469 2587 3086 3410 3253 3384 3580 3154 2509 1970 1604 1681 1807 2246 2403 2586 2520 3146 3296 3128 3015 2762 2596 1809 1056 445 332 372 609 954 1008 1333 1906 1838 1554 924 1305 1359 1328 1364
2170 2680 2881 2817 2411 1978 1712 1728 1906 1951 2136 2362 2271 2097 2025 2067 2341 2280 2356 2372 2604 2387 2478 2373 2686 2931 2899 2806 3138 3062 3050 3032 2848 2732 2786 3022 3298 2885 2457 2774 3145 3088 2826 2804 2471 2398 2300 2666 2877 3052 2696 2751 3160 2948 2505 2244 2153 2174 2024 1833 2014 2093 2138 2891 3222 2748 2075 1822 1421 897 347 336 656 761 1085 1040 1732 1878 1834 1287 552 466 1498 1677 1398
2444 2762 3061 2860 2690 2450 2020 1769 1819 2010 2030 2254 2249 2310 1979 2154 2263 2112 2181 2191 2211 2655 2411 2532 2738 3207 2922 2927 3019 3083 3316 3278 2920 2849 3005 2976 3105 3291 2922 2766 2624 2484 2394 2174 1815 1872 1926 2261 2247 2266 2565 2974 3188 2578 2312 2287 2438 2534 2536 2344 1958 1790 1667 1514 2069 2461 2137 1728 1667 1278 1035 1094 1061 922 908 1076 1452 1786 2360 2722 2116 1791 2815 2334 1879
2463 2842 2977 2969 2786 2613 2384 1900 2012 2169 2028 1923 1877 1858 1899 1934 2212 2259 2184 2088 2183 2335 2751 2645 2808 3189 2977 2807 3119 3375 3346 3282 3318 3056 2822 3008 3280 3104 3048 3208 3363 3356 3043 2588 2486 2380 2235 2245 2238 2546 2730 3059 3334 2977 2546 2669 2673 2422 2328 2152 1970 1905 1796 1671 1544 1930 2204 1851 1489 1338 1294 1564 1814 1874 2068 1968 1854 1814 1818 2268 2709 2986 3143 2443 1789
2562 2844 3271 3018 2993 2783 2692 2530 2244 2175 1975 1862 1780 1732 1656 1586 1837 2234 2217 2252 2443 2373 2552 2843 2716 2988 2860 2786 2916 3349 3461 3612 3668 3586 3113 3062 2905 3021 3084 3288 3198 3236 3116 2935 2763 2535 2350 2696 2972 2965 2798 2792 2822 2858 3168 3158 2818 2310 2282 1974 1791 1752 1882 2048 1958 2356 1987 1837 1800 1764 1835 1679 1678 1975 2002 2454 2351 1874 2248 2737 2633 2980 3068 2574 2095
3291 3265 3446 3149 3307 3277 2779 2464 2476 2194 2071 2000 1720 1703 1593 1539 1566 1905 2250 2324 2384 2338 2302 2595 2716 2944 3163 2903 2674 2955 3446 3455 3803 4034 3592 3169 2898 2902 2962 3103 3246 3013 3024 2842 2649 2538 2560 2685 2888 2960 2860 2944 2928 2942 2999 3076 2692 2393 2283 2168 1462 1820 1536 1396 1193 1443 1910 1776 1477 1418 1524 1590 2085 2174 1939 2487 3071 3441 3220 3087 2990 2677 2508 2253 2125
3945 3887 3908 3548 3656 3750 3318 2557 2381 2227 2366 2314 2084 1889 1665 1586 1740 1891 2333 2518 2352 2242 2196 2210 2542 2702 2798 2793 2953 2964 3383 3657 3958 4074 3771 3380 3139 3100 3139 3096 2802 2817 2803 2911 2790 2624 2550 2506 2458 2459 2596 3021 3344 3337 3122 2898 2781 2662 2352 2678 2867 2219 2000 1515 1397 1409 1050 1232 1321 1297 820 1458 2116 2339 2083 2582 2890 3128 3183 2759 2855 2237 1821 1957 1992
4334 4340 4257 3938 4028 4230 3962 3336 2871 2610 2471 2615 2466 2024 2011 2028 2029 2221 2490 2567 2281 2180 2176 2121 2358 2436 2592 2837 2974 2936 2794 3128 3274 3386 3548 3555 3199 2926 2927 3075 3033 2837 2800 2505 2512 2563 2632 2583 1978 1720 1737 2443 3486 3654 3667 4084 2978 2847 2729 2862 3082 2701 2924 2129 1845 2197 1865 1231 1778 1503 1689 1846 2043 1674 1514 1772 1901 2674 2847 2992 2310 1543 1531 1654 1887
4648 4569 4444 4245 4190 4403 4593 4177 3765 3482 3255 3203 3198 2679 2366 2420 2207 2406 2608 2639 2488 2440 2469 2586 2574 2504 2592 2736 2896 2764 2629 2540 2787 3163 3040 2992 3099 2825 2586 2757 2868 2774 3579 3471 3013 2952 2559 2519 1828 1355 2085 2747 3362 4309 4166 3759 3485 3153 3548 3180 3428 3689 3209 2842 2821 2475 2151 1692 1806 1501 1346 1051 752 710 732 692 759 2050 2430 2140 1593 1568 1801 2025 1927
4574 4582 4559 4622 4381 4462 4736 4938 4832 4434 3960 3632 3607 3485 2937 2959 2708 2810 2847 2821 2808 2745 2733 2660 2545 2448 2338 2381 2414 2276 2381 1476 1537 1828 2246 2422 2430 2508 2676 2888 3462 3960 3497 3068 2755 2714 2276 2334 2228 1879 2093 2692 3586 4143 4228 4693 4437 4968 4600 4406 4320 3096 2904 2117 1790 1653 1429 1736 1488 1208 940 798 673 636 845 788 1603 2012 1804 1706 1895 2386 2597 2194 2215
4270 4419 4493 4453 4220 4033 3783 3920 4277 4636 4410 4022 3774 3767 3761 3282 3426 3602 3324 3006 3395 2914 2750 2750 2749 2597 2455 2309 2161 1906 1360 1225 1308 1298 1549 1682 2048 2688 2348 2510 2610 2748 3116 2917 2765 2594 2345 2436 2185 2275 2390 2456 1845 1890 2230 2793 3980 4772 4298 4380 4330 4217 4477 3807 2105 1225 1310 1778 1750 1498 1218 890 1438 1542 1403 1989 2526 2064 1866 2077 2477 2417 2146 1886 1730
3521 3850 3915 3831 3794 3714 3532 3337 3443 3467 3956 4383 3940 3595 3559 3785 3604 3381 2951 3039 2751 3037 3119 2813 2819 2820 2480 2628 2287 2536 2518 2087 1540 1539 1544 1703 1354 1586 1908 1513 1600 2030 1914 2038 2303 2748 3254 2913 2544 2575 2755 2373 2115 1808 1979 1956 2558 4012 4078 3895 3924 4329 2795 1968 2141 2615 1086 1339 1867 2012 2040 2217 2032 2237 2663 2679 2571 2146 2192 2088 1970 1833 1726 1459 1280
3482 3258 3289 3534 3384 2605 2626 3082 3142 3212 3473 3959 4042 3535 3370 3072 3103 3135 3042 3152 3193 3195 3061 2987 3068 3122 3000 2920 3026 2828 2654 2087 1789 1373 1433 1561 1297 1193 2230 1376 1978 2654 2246 2103 2482 2540 2500 3526 3330 3086 2910 2644 2652 2866 3203 3015 2668 3175 4086 3062 3105 4053 2716 1812 1874 1987 2902 1397 1515 2067 2608 3328 3057 3050 2758 2363 2103 2117 1751 1729 1839 1486 1175 843 551
3238 3143 3087 3063 2849 2530 3078 3100 3110 3135 3198 3587 3886 3707 3500 3208 3118 3032 3047 3266 3643 4074 3430 3332 3462 3241 2971 2616 2580 2087 1516 1712 1360 1129 1308 1432 1326 1166 2060 1920 2138 2233 2263 2276 2398 2379 2822 2861 3150 3245 3233 3012 2958 3162 3192 2926 2839 2624 2826 2436 2446 2778 3201 3146 2863 2938 3170 2604 2527 2553 2846 2676 2265 2244 1832 1836 1853 1506 1266 974 866 717 466 549 291
2565 2834 2692 2931 2903 2736 2967 3084 2951 2896 2809 2217 2778 3130 3343 3473 3163 3150 3243 3412 3379 3652 3812 3496 3526 3878 4009 3656 3432 3003 1777 1065 862 964 1205 1130 844 884 1818 2758 3080 2794 2452 2248 2452 2342 2394 3380 3190 2511 2420 2350 2268 2110 2508 2639 2704 2369 2418 2500 2659 2228 1723 1216 1674 2450 2233 2440 2237 2007 1610 1176 1005 869 699 486 548 878 1017 703 378 254 154 75 11
2645 2597 2556 2967 2429 2452 2701 2962 2689 2577 2675 2616 2757 3066 3228 3362 3146 3220 3323 3424 3294 3394 3416 2989 2855 2784 2889 3044 2974 2443 1963 1574 1260 1059 737 536 670 1042 2029 2210 2728 3096 2978 2769 2816 2922 2655 2240 2304 2252 2370 1638 1884 2750 2766 2327 2090 2273 1853 2007 1609 1678 2051 1457 1496 1290 967 840 894 1046 940 812 509 394 269 200 172 152 135 85 30 0 0 0 0
2716 2600 2551 2046 2072 1972 2239 2403 2032 1710 1740 1684 2275 2871 2831 2763 2863 2851 3042 3144 3052 2772 2560 2329 2203 1848 1674 1570 1290 2174 1392 1049 698 622 590 610 581 959 1905 2451 2870 3036 2921 2831 3436 3006 2002 2088 1974 1547 1318 1656 1953 2020 1647 986 1476 2144 2336 1755 1329 1342 1704 1078 897 1079 1015 746 568 539 525 463 376 220 137 109 105 95 101 66 0 0 0 0 0
2448 1944 1869 2006 1574 1475 1430 1328 1357 1419 1406 1405 1517 1718 1653 1789 1774 1488 1583 1730 1982 1941 1565 1779 1628 1349 1040 709 686 855 672 657 627 619 648 615 596 1003 1849 2132 2304 2420 2495 2544 2228 1977 1785 1487 1293 1070 809 779 732 644 647 653 776 1652 1712 1950 1392 1071 694 952 1027 650 557 563 631 590 466 275 268 156 95 67 36 40 37 42 11 0 0 0 0
1086 1107 1034 1098 1051 1028 861 766 720 728 877 965 1177 1269 1304 1355 1387 1541 1394 1150 1189 1353 1225 1267 1326 693 385 338 444 470 436 421 479 592 632 698 688 679 1401 1707 1719 1863 1692 1647 1481 1302 1352 1382 1225 872 678 521 446 523 635 713 754 732 733 988 908 890 667 894 1075 624 432 353 446 428 317 252 111 83 58 39 0 0 0 0 0 0 0 0 0
564 747 789 718 627 404 568 581 688 831 833 453 664 1123 1111 1361 1461 1372 1300 969 912 1009 690 1005 546 436 430 495 600 640 622 594 602 685 793 854 907 924 888 861 785 826 995 1530 1240 1053 973 1031 918 636 456 380 365 346 406 490 583 670 657 698 707 695 799 660 353 475 542 453 202 136 119 96 38 42 36 25 6 0 0 0 0 0 0 0 0
419 569 643 488 438 646 637 808 891 699 572 553 579 810 801 1005 1067 1300 1338 960 801 656 634 678 717 720 727 748 695 635 583 558 476 456 461 467 464 464 489 561 671 762 789 747 725 740 586 504 500 492 474 458 446 444 431 414 374 381 376 401 408 399 431 323 284 228 271 278 2 23 12 26 20 12 8 0 0 0 0 0 0 0 0 0 0
437 475 467 459 378 407 391 369 300 362 526 404 395 538 524 604 881 1239 867 790 667 657 692 720 718 691 651 640 621 555 525 522 437 401 390 402 327 251 189 160 158 163 258 323 340 413 424 412 399 416 444 419 392 366 339 276 205 146 103 136 150 159 213 208 75 64 30 44 1 1 4 14 12 2 2 0 0 0 0 0 0 0 0 0 0
419 440 441 507 420 406 488 449 468 354 324 224 293 225 268 446 531 573 676 675 620 557 450 400 417 461 509 558 497 454 400 355 308 289 192 99 34 3 0 8 29 32 48 62 71 78 108 133 197 275 299 280 251 197 130 80 44 17 16 28 36 54 55 72 50 24 22 16 6 1 0 0 0 0 0 0 0 0 0 0 0 0 0 0 0
356 387 405 403 337 359 316 229 165 134 115 172 204 298 266 336 387 405 400 436 476 464 454 408 379 353 332 351 356 304 312 256 196 84 48 14 10 0 1 17 6 6 3 0 0 12 2 49 73 187 188 151 97 61 37 24 12 0 0 0 0 0 0 1 0 3 0 0 0 0 2 0 0 0 0 0 0 0 0 0 0 0 0 0 0
274 230 181 164 124 121 121 107 118 138 138 149 171 178 186 179 167 162 154 178 191 207 215 220 223 223 223 227 231 229 211 149 108 52 34 38 52 55 48 20 12 15 0 0 0 0 0 0 60 69 73 64 41 26 16 4 0 0 5 5 0 0 0 1 1 0 0 1 0 2 5 4 0 1 0 0 0 0 0 0 0 0 0 0 0
199 173 164 37 12 0 0 0 0 0 122 144 158 168 160 144 177 140 132 152 166 165 158 156 150 150 161 181 199 196 110 33 0 90 94 104 73 0 0 0 3 0 0 0 0 0 0 0 2 9 13 18 8 0 0 0 0 6 7 1 0 0 2 2 2 5 4 4 2 1 1 3 0 0 0 0 0 0 0 0 0 0 0 0 0
122 154 26 88 52 6 16 0 0 20 18 20 87 87 72 37 52 112 138 149 148 134 106 115 96 76 77 28 2 8 29 35 26 33 64 69 0 0 0 0 0 0 0 2 2 0 0 0 0 5 0 0 0 1 2 4 1 0 0 0 0 0 0 0 0 0 0 0 0 0 0 0 0 0 0 0 0 0 0 0 0 0 0 0 0
8 1 1 1 1 66 0 5 57 23 0 94 71 48 82 0 89 0 73 94 97 2 2 69 1 0 0 0 0 0 0 0 0 0 0 0 0 0 0 0 0 0 0 0 0 2 2 0 0 0 1 0 0 0 0 0 0 0 0 0 0 0 0 0 0 0 0 0 0 0 0 0 0 0 0 0 0 0 0 0 0 0 0 0 0
48 46 56 20 0 0 0 0 0 0 0 0 0 0 0 0 0 0 50 0 47 98 50 42 45 0 0 0 0 0 0 0 0 0 0 0 0 0 0 0 0 0 0 0 0 6 5 4 2 4 2 4 2 3 0 1 1 0 0 0 0 0 0 0 0 0 0 0 0 0 0 0 0 0 0 0 0 0 0 0 0 0 0 0 0
57 64 70 61 32 2 0 0 3 1 0 0 0 0 0 0 0 0 0 0 0 0 0 0 0 0 0 0 0 0 0 0 0 0 0 0 0 0 0 0 0 0 0 0 12 12 10 5 1 0 4 4 2 5 4 7 12 14 6 4 1 0 0 0 0 0 0 0 0 0 0 0 0 0 0 0 0 0 0 0 0 0 0 0 0
44 11 0 6 25 11 0 0 0 0 0 0 0 0 0 0 0 0 0 0 0 0 0 0 0 0 0 0 0 0 0 0 0 0 0 0 0 0 0 0 0 0 0 0 16 5 5 2 3 3 3 0 0 0 1 0 0 0 2 1 0 0 0 0 0 0 0 0 0 0 0 0 0 0 0 0 0 0 0 0 0 0 0 0 0
115 63 46 8 0 0 0 0 0 0 0 0 0 0 0 0 0 0 0 0 0 0 0 0 0 0 0 0 0 0 0 0 0 0 0 0 0 0 0 0 0 0 0 26 8 2 11 11 9 9 5 6 8 13 6 0 0 0 0 0 0 0 0 0 0 0 0 0 0 0 0 0 0 0 0 0 0 0 0 0 0 0 0 0 0
130 104 82 82 25 0 0 0 0 0 0 0 0 0 0 0 0 0 0 0 0 0 0 0 0 0 0 0 0 0 0 0 0 0 0 0 0 0 0 0 0 0 8 8 4 4 3 6 4 10 8 4 9 9 2 0 0 0 0 0 0 0 0 0 0 0 0 0 0 0 0 0 0 0 0 0 0 0 0 0 0 0 0 0 0
0 10 119 63 29 7 0 0 0 0 0 0 0 0 0 0 0 0 0 0 0 0 0 0 0 0 0 0 0 0 0 0 0 0 0 0 0 0 0 28 43 0 2 5 3 3 5 2 7 2 0 0 0 0 0 0 0 0 0 0 0 0 0 0 0 0 0 0 0 0 0 0 0 0 0 0 0 0 0 0 0 0 0 0 0
57 12 6 20 31 62 49 57 57 29 16 41 21 0 0 0 0 0 0 0 0 0 0 0 0 0 0 0 0 0 0 0 0 0 0 0 0 0 104 0 0 0 0 0 0 0 0 0 1 1 0 0 0 0 0 0 0 0 0 0 0 0 0 0 0 0 0 0 0 0 0 0 0 0 0 0 0 0 0 0 0 0 0 0 0
1 25 16 28 22 24 58 35 58 62 8 2 2 6 0 1 1 0 0 1 0 0 0 0 0 0 0 0 0 0 0 0 0 0 0 0 0 116 0 0 0 0 0 0 0 0 0 0 0 0 0 0 0 0 0 0 0 0 0 0 0 0 0 0 0 0 0 0 0 0 0 0 0 0 0 0 0 0 0 0 0 0 0 0 0
0 8 96 102 54 59 48 23 0 0 4 0 22 4 7 7 1 2 4 6 1 3 1 0 0 0 0 0 0 0 0 0 0 0 0 0 17 0 0 0 0 0 0 0 0 0 0 0 0 0 0 0 0 0 0 0 0 0 0 0 2 0 0 0 0 1 0 0 0 0 0 0 0 0 0 0 0 0 0 0 0 0 0 0 0
0 0 0 0 8 14 11 1 0 0 0 0 0 0 0 0 1 4 3 4 4 1 7 7 2 3 8 3 0 0 0 0 0 5 4 3 0 0 0 0 0 0 0 0 0 0 0 0 0 0 0 0 0 0 0 0 0 0 0 0 0 0 0 0 0 0 0 0 0 0 0 0 0 0 0 0 0 0 0 0 0 0 0 0 0
2 4 0 0 0 0 0 2 3 2 0 0 0 0 0 0 0 0 0 7 6 7 0 6 8 6 4 4 2 0 0 2 8 11 9 8 6 1 0 0 0 0 0 0 0 0 0 0 0 0 0 0 0 0 0 0 0 0 0 0 0 0 0 0 0 0 0 0 0 0 0 0 0 0 0 0 0 0 0 0 0 0 0 0 0
1 0 0 0 0 0 0 0 0 1 5 1 0 0 0 0 0 0 0 0 4 9 3 0 0 2 53 19 0 0 48 5 9 10 7 7 9 7 1 0 0 0 0 0 0 0 0 0 0 0 0 0 0 0 0 0 0 0 0 0 0 0 0 0 0 0 0 0 0 0 0 0 0 0 0 0 0 0 0 0 0 0 0 0 0
5 1 1 3 0 2 1 0 0 0 1 0 0 0 0 0 0 0 0 0 1 3 5 2 1 44 97 0 0 0 8 33 5 1 2 1 2 2 6 3 0 0 0 0 0 0 0 0 0 0 0 0 0 0 0 0 0 0 0 0 0 0 0 0 0 0 0 0 0 0 0 0 0 0 0 0 0 0 0 0 0 0 0 0 0
58 30 18 14 1 2 3 4 4 3 3 2 2 0 0 0 2 0 0 0 1 0 2 0 1 8 95 0 0 0 1 37 56 38 39 21 6 2 0 4 1 0 0 0 0 0 0 0 0 0 0 0 0 0 0 0 0 0 0 0 0 0 0 0 0 0 0 0 0 0 0 0 0 0 0 0 0 0 0 0 0 0 0 0 0
37 22 26 26 28 19 17 12 12 10 10 11 9 8 6 6 8 10 6 4 1 1 1 0 0 4 87 27 0 3 24 43 51 73 28 14 21 4 0 6 0 0 0 0 0 0 0 0 0 0 0 0 0 0 0 0 0 0 0 0 0 1 0 5 0 2 0 0 0 0 1 0 0 0 0 2 2 0 0 0 0 0 0 0 0
10 13 9 7 15 45 29 99 26 35 24 17 23 28 24 29 19 12 10 10 5 8 8 9 4 13 31 91 61 46 55 74 107 64 75 37 10 2 2 0 0 0 0 0 0 0 0 0 0 0 0 0 0 0 0 0 0 0 0 1 0 0 0 1 0 2 3 4 0 0 0 0 3 3 3 0 3 0 0 2 2 1 3 3 5
0 0 2 6 10 18 12 17 8 7 15 10 11 12 13 17 27 26 24 10 11 20 27 17 21 38 55 100 136 128 138 177 200 134 58 30 25 2 2 0 0 0 0 0 0 0 0 0 0 0 0 0 0 0 0 0 0 2 2 2 2 3 1 2 3 2 3 4 0 4 2 3 2 2 3 0 0 2 0 3 4 3 3 4 4
5 1 0 0 0 1 4 1 2 6 7 3 4 5 4 3 5 9 7 8 8 19 22 29 37 46 79 102 143 152 146 152 150 55 43 35 8 1 0 0 0 0 0 0 0 0 0 0 0 0 0 0 1 2 2 2 0 0 0 1 2 2 5 4 2 1 3 3 0 0 4 5 3 2 0 0 0 0 0 3 6 5 0 0 2
4 4 2 3 0 1 0 6 2 2 0 0 4 6 2 0 0 0 0 0 3 9 13 8 12 11 13 49 70 95 112 122 101 36 33 27 10 7 9 10 6 4 1 0 0 0 0 0 0 0 0 0 0 2 0 2 0 3 5 0 3 1 0 1 2 6 1 0 0 0 3 2 5 1 1 0 0 0 0 5 5 2 6 0 3
0 0 1 5 7 5 5 4 6 3 2 5 2 1 1 3 4 2 0 0 0 0 1 5 18 19 30 39 47 49 64 48 77 46 25 10 6 0 7 12 12 5 2 1 0 0 0 0 0 0 0 0 7 3 5 3 4 2 2 3 0 0 0 0 0 5 0 3 0 0 0 0 0 0 0 0 0 0 0 3 7 1 0 3 0
0 2 2 3 2 3 9 11 7 3 6 3 2 2 2 1 1 3 4 3 1 0 0 4 16 28 39 60 57 64 60 79 33 20 8 2 1 0 2 12 8 2 1 7 3 1 3 6 4 3 5 6 4 7 3 0 3 3 3 0 0 0 0 0 0 0 0 0 2 0 6 0 0 0 0 0 6 0 0 0 0 0 0 0 0
2 2 2 4 4 4 3 3 2 4 6 4 5 4 5 7 7 9 8 6 2 2 4 8 26 51 68 59 56 53 65 33 55 5 1 4 4 7 6 3 2 6 7 4 1 0 2 3 2 10 9 6 5 1 4 4 2 2 0 0 0 0 0 0 1 0 0 0 5 5 2 1 1 0 0 0 0 0 0 0 2 0 0 0 0
Wind_Speed
11 11 11 10 9 8 7 6 4 5 4 4 3 3 4 4 4 4 4 3 2 2 2 1 3 4 6 6 6 5 5 6 6 5 4 3 3 4 5 4 3 2 1 1 1 1 2 2 1 2 1 1 3 3 3 4 4 5 6 6 6 7 7 7 5 5 4 4 4 4 4 6 5 6 4 3 2 2 3 5 7 7 8 7 16
13 14 13 13 10 10 9 9 8 8 6 6 5 6 6 7 6 5 4 4 3 2 2 1 1 3 5 5 6 7 6 6 6 5 4 3 3 2 1 1 1 1 2 1 2 2 2 3 2 3 4 4 4 3 3 3 3 4 5 6 6 6 8 7 5 3 3 3 4 4 4 7 6 7 6 4 5 5 4 5 6 7 9 10 8
15 15 15 14 12 12 11 10 10 9 8 8 7 7 8 8 8 7 5 4 5 3 3 2 2 3 5 7 7 6 6 6 6 6 6 5 4 4 5 4 3 2 2 2 2 3 3 3 4 5 5 6 7 7 5 4 4 3 3 4 4 5 6 8 8 5 3 2 3 4 6 7 8 9 9 9 8 8 6 7 7 4 8 9 9
16 17 16 15 14 13 13 12 11 11 10 10 9 8 9 9 9 7 5 4 4 6 4 3 4 5 4 5 6 7 7 6 6 5 4 4 5 4 3 3 3 2 2 2 2 4 3 4 4 4 5 6 7 6 7 7 6 7 6 6 7 7 7 8 10 9 6 4 5 4 6 7 8 10 11 11 10 9 9 11 11 10 9 9 10
17 17 16 15 15 14 13 13 13 12 11 11 10 10 8 8 9 7 6 5 5 6 8 6 5 5 4 4 5 6 6 6 6 5 5 5 4 4 4 3 3 3 2 3 3 3 3 3 4 5 6 6 7 7 8 8 9 8 7 8 8 8 9 9 10 12 11 9 7 7 7 8 9 10 11 11 11 11 10 9 9 11 11 8 8
17 18 16 15 16 15 14 14 13 13 12 11 11 10 9 8 8 8 7 6 7 7 7 8 7 7 6 6 7 7 7 7 7 7 6 5 5 5 4 4 4 3 3 4 4 5 4 4 5 6 6 7 7 7 8 7 7 7 8 8 8 8 7 8 9 12 12 11 10 9 10 9 10 10 10 12 11 10 11 11 10 12 12 9 7
17 16 15 15 16 15 14 13 14 14 13 12 11 11 10 10 9 9 10 9 9 8 9 8 8 8 8 8 7 8 8 9 9 8 7 7 7 6 5 5 4 5 5 5 5 6 6 7 7 8 9 9 8 9 10 10 9 8 8 7 7 11 11 9 6 6 11 12 12 11 10 11 11 10 12 14 13 13 12 12 12 14 14 12 9
18 17 16 15 16 15 14 14 14 14 14 14 12 12 12 11 12 12 12 12 11 11 9 10 10 9 9 10 9 10 11 11 11 10 9 9 9 8 8 6 6 6 5 6 6 6 7 8 8 10 12 13 12 12 12 11 10 10 11 14 9 10 12 11 9 8 9 11 13 13 11 9 11 12 12 15 14 14 15 14 13 13 14 15 13
20 19 18 17 17 17 16 16 16 16 15 16 14 13 13 14 14 14 14 13 14 13 12 11 11 11 11 11 11 11 12 12 12 12 11 11 9 9 9 9 8 8 7 5 6 6 6 7 8 6 14 21 13 14 12 12 11 11 12 12 10 11 13 12 12 11 12 10 14 14 13 13 14 13 13 14 14 14 15 16 15 14 15 15 16
21 20 19 19 19 19 19 19 19 18 18 18 17 15 14 14 14 15 14 14 14 15 15 15 13 12 12 12 12 12 12 12 14 17 15 14 13 12 12 12 10 10 12 11 9 9 10 14 15 7 4 13 17 18 17 13 13 11 12 14 13 14 14 14 14 13 13 14 15 15 14 14 15 15 14 14 15 17 17 16 14 15 17 17 18
21 21 21 21 22 22 22 22 22 20 20 20 19 18 16 16 15 15 15 15 15 16 16 15 15 14 13 13 12 13 11 21 31 21 18 15 13 13 13 13 14 14 12 11 10 9 9 11 14 14 9 10 18 18 14 13 15 17 16 15 15 15 17 18 17 14 12 16 18 17 16 16 15 16 16 16 20 19 18 17 16 18 18 18 19
22 23 23 24 24 23 22 22 22 23 22 21 21 20 19 17 17 18 17 16 18 16 16 16 15 15 15 14 13 12 23 30 20 16 13 15 12 14 14 14 15 14 15 13 13 13 12 13 15 17 22 25 23 23 20 8 14 22 22 22 20 17 17 19 17 17 17 18 18 18 17 17 18 18 19 22 22 20 19 18 19 19 18 18 20
23 24 25 25 25 24 23 23 23 23 24 23 23 23 21 20 20 19 19 18 18 19 18 17 17 17 16 15 15 19 16 27 23 16 18 19 19 16 14 20 22 16 15 15 13 13 16 16 16 19 23 26 23 21 20 18 13 20 23 24 24 24 23 22 21 19 18 18 17 17 17 19 19 21 25 24 22 20 20 20 21 21 21 20 21
25 25 26 27 27 26 24 25 25 26 26 26 26 25 24 23 23 23 23 23 21 21 20 20 20 20 19 18 18 19 17 31 30 27 22 23 21 19 20 18 16 17 17 17 17 16 16 19 20 21 22 23 24 23 23 23 22 22 24 24 24 28 28 26 24 24 21 19 17 17 19 25 23 25 26 25 23 22 22 22 24 24 24 23 21
27 28 28 28 29 28 27 27 27 28 28 28 28 27 27 26 26 26 26 26 26 26 24 23 22 22 21 20 20 18 32 35 36 31 30 25 24 20 20 19 19 18 20 19 20 19 19 21 21 22 23 21 22 23 24 26 26 25 23 21 22 26 24 23 25 28 27 24 22 20 22 25 26 26 26 26 26 25 26 25 26 27 26 24 23
29 30 29 30 31 30 30 30 28 30 30 27 27 28 29 28 28 28 28 29 29 29 30 29 28 28 28 26 27 24 35 39 37 35 33 30 25 23 22 22 22 22 21 21 23 23 22 24 27 24 27 23 30 34 32 29 24 23 20 20 22 24 25 34 32 32 31 29 27 28 32 34 34 32 30 28 26 25 26 26 26 25 24 nan nan
32 32 32 33 31 31 31 31 32 32 31 29 29 29 30 30 30 31 31 31 31 31 32 33 33 33 33 32 31 29 39 40 40 37 34 32 27 26 26 25 24 24 24 24 24 24 36 34 30 28 27 33 35 35 36 32 27 22 20 20 22 22 29 33 39 39 40 41 42 43 42 40 39 37 36 35 31 28 26 nan nan nan nan nan nan
35 33 32 32 32 33 34 33 32 31 31 30 30 32 32 33 32 32 31 33 34 35 35 36 36 37 38 38 37 32 40 43 42 39 36 33 28 29 29 28 27 27 26 26 28 36 39 47 44 42 40 38 37 38 37 32 29 26 22 23 21 25 28 34 33 37 42 44 44 43 41 40 42 41 39 37 35 nan 33 nan nan nan nan nan nan
36 38 36 35 35 34 34 33 33 35 35 33 30 30 30 32 33 32 32 32 33 34 33 34 33 34 36 39 40 38 39 41 42 39 39 38 34 29 29 29 28 28 28 29 30 40 41 47 53 48 45 41 41 41 39 37 33 29 27 25 26 26 30 32 34 39 40 40 40 40 40 40 39 39 nan nan nan nan nan nan nan nan nan nan nan
44 39 35 39 38 36 36 36 36 33 34 36 35 31 31 33 34 33 35 35 35 36 36 36 37 37 39 40 39 38 38 40 41 40 41 40 37 32 29 28 28 29 30 30 34 38 40 43 47 47 46 45 44 43 42 40 36 33 33 33 31 30 36 34 36 36 42 43 42 41 40 39 39 nan nan nan nan nan nan nan nan nan nan nan nan
43 42 44 42 40 38 38 39 36 34 37 37 37 36 35 35 38 38 38 39 39 41 39 41 43 42 42 42 42 41 39 40 41 42 43 43 43 38 38 38 35 34 33 32 39 40 40 42 45 47 46 45 45 45 45 43 41 39 38 35 33 37 40 41 44 49 48 47 44 41 38 nan nan nan nan nan nan nan nan nan nan nan nan nan nan
45 43 43 45 43 42 42 40 38 39 41 42 42 40 40 39 41 43 42 42 43 44 46 48 46 46 44 45 44 43 44 45 41 45 45 46 47 47 43 43 38 38 40 40 40 40 40 44 46 45 46 47 47 47 46 46 44 43 42 42 44 46 47 46 47 47 47 47 nan nan nan nan nan nan nan nan nan nan nan nan nan nan nan nan nan
54 52 51 50 50 49 49 47 45 45 46 46 45 47 46 42 42 48 49 47 46 49 51 49 49 48 47 46 46 46 45 45 46 46 47 47 47 47 47 45 43 44 42 40 37 36 38 43 46 48 47 47 47 48 49 49 49 47 49 50 49 49 49 49 nan nan nan nan nan nan nan nan nan nan nan nan nan nan nan nan nan nan nan nan nan
48 52 52 50 50 51 52 53 53 52 53 53 52 51 49 50 52 52 50 49 50 51 50 50 50 51 49 48 47 47 47 48 51 52 48 nan nan nan nan nan nan nan nan nan nan nan 35 39 41 41 45 47 51 53 52 nan nan nan nan nan nan nan nan nan nan nan nan nan nan nan nan nan nan nan nan nan nan nan nan nan nan nan nan nan nan
26 33 36 34 32 33 38 42 46 47 46 48 51 54 56 56 56 55 54 53 53 53 49 49 51 52 50 49 48 48 48 49 50 nan nan nan nan nan nan nan nan nan nan nan nan nan nan nan nan 32 33 39 nan nan nan nan nan nan nan nan nan nan nan nan nan nan nan nan nan nan nan nan nan nan nan nan nan nan nan nan nan nan nan nan nan
19 20 21 20 19 18 21 24 27 28 28 26 33 38 43 48 54 58 59 56 55 54 50 48 48 49 50 49 47 45 42 40 40 nan nan nan nan nan nan nan nan nan nan nan nan nan nan nan nan nan nan nan nan nan nan nan nan nan nan nan nan nan nan nan nan nan nan nan nan nan nan nan nan nan nan nan nan nan nan nan nan nan nan nan nan
21 20 20 nan nan nan nan nan nan nan 22 21 20 21 24 29 37 43 45 45 44 42 40 38 38 39 41 39 36 34 31 nan nan nan nan 29 nan nan nan nan nan nan nan nan nan nan nan nan nan nan nan nan nan nan nan nan nan nan nan nan nan nan nan nan nan nan nan nan nan nan nan nan nan nan nan nan nan nan nan nan nan nan nan nan nan
24 24 nan nan nan nan nan nan nan nan nan nan nan nan nan nan nan 25 26 27 28 26 26 26 nan nan nan nan nan nan nan nan nan nan nan nan nan nan nan nan nan nan nan nan nan nan nan nan nan nan nan nan nan nan nan nan nan nan nan nan nan nan nan nan nan nan nan nan nan nan nan nan nan nan nan nan nan nan nan nan nan nan nan nan nan
nan nan nan nan nan nan nan nan nan nan nan nan nan nan nan nan nan nan nan nan nan nan nan nan nan nan nan nan nan nan nan nan nan nan nan nan nan nan nan nan nan nan nan nan nan nan nan nan nan nan nan nan nan nan nan nan nan nan nan nan nan nan nan nan nan nan nan nan nan nan nan nan nan nan nan nan nan nan nan nan nan nan nan nan nan
nan nan nan nan nan nan nan nan nan nan nan nan nan nan nan nan nan nan nan nan nan nan nan nan nan nan nan nan nan nan nan nan nan nan nan nan nan nan nan nan nan nan nan nan nan nan nan nan nan nan nan nan nan nan nan nan nan nan nan nan nan nan nan nan nan nan nan nan nan nan nan nan nan nan nan nan nan nan nan nan nan nan nan nan nan
nan nan nan nan nan nan nan nan nan nan nan nan nan nan nan nan nan nan nan nan nan nan nan nan nan nan nan nan nan nan nan nan nan nan nan nan nan nan nan nan nan nan nan nan nan nan nan nan nan nan nan nan nan nan nan nan nan nan nan nan nan nan nan nan nan nan nan nan nan nan nan nan nan nan nan nan nan nan nan nan nan nan nan nan nan
nan nan nan nan nan nan nan nan nan nan nan nan nan nan nan nan nan nan nan nan nan nan nan nan nan nan nan nan nan nan nan nan nan nan nan nan nan nan nan nan nan nan nan nan nan nan nan nan nan nan nan nan nan nan nan nan nan nan nan nan nan nan nan nan nan nan nan nan nan nan nan nan nan nan nan nan nan nan nan nan nan nan nan nan nan
27 nan nan nan nan nan nan nan nan nan nan nan nan nan nan nan nan nan nan nan nan nan nan nan nan nan nan nan nan nan nan nan nan nan nan nan nan nan nan nan nan nan nan nan nan nan nan nan nan nan nan nan nan nan nan nan nan nan nan nan nan nan nan nan nan nan nan nan nan nan nan nan nan nan nan nan nan nan nan nan nan nan nan nan nan
28 27 nan nan nan nan nan nan nan nan nan nan nan nan nan nan nan nan nan nan nan nan nan nan nan nan nan nan nan nan nan nan nan nan nan nan nan nan nan nan nan nan nan nan nan nan nan nan nan nan nan nan nan nan nan nan nan nan nan nan nan nan nan nan nan nan nan nan nan nan nan nan nan nan nan nan nan nan nan nan nan nan nan nan nan
nan nan 30 nan nan nan nan nan nan nan nan nan nan nan nan nan nan nan nan nan nan nan nan nan nan nan nan nan nan nan nan nan nan nan nan nan nan nan nan nan nan nan nan nan nan nan nan nan nan nan nan nan nan nan nan nan nan nan nan nan nan nan nan nan nan nan nan nan nan nan nan nan nan nan nan nan nan nan nan nan nan nan nan nan nan
nan nan nan nan nan nan nan nan nan nan nan nan nan nan nan nan nan nan nan nan nan nan nan nan nan nan nan nan nan nan nan nan nan nan nan nan nan nan 49 nan nan nan nan nan nan nan nan nan nan nan nan nan nan nan nan nan nan nan nan nan nan nan nan nan nan nan nan nan nan nan nan nan nan nan nan nan nan nan nan nan nan nan nan nan nan
nan nan nan nan nan nan nan nan nan nan nan nan nan nan nan nan nan nan nan nan nan nan nan nan nan nan nan nan nan nan nan nan nan nan nan nan nan 44 nan nan nan nan nan nan nan nan nan nan nan nan nan nan nan nan nan nan nan nan nan nan nan nan nan nan nan nan nan nan nan nan nan nan nan nan nan nan nan nan nan nan nan nan nan nan nan
nan nan nan 31 nan nan nan nan nan nan nan nan nan nan nan nan nan nan nan nan nan nan nan nan nan nan nan nan nan nan nan nan nan nan nan nan nan nan nan nan nan nan nan nan nan nan nan nan nan nan nan nan nan nan nan nan nan nan nan nan nan nan nan nan nan nan nan nan nan nan nan nan nan nan nan nan nan nan nan nan nan nan nan nan nan
nan nan nan nan nan nan nan nan nan nan nan nan nan nan nan nan nan nan nan nan nan nan nan nan nan nan nan nan nan nan nan nan nan nan nan nan nan nan nan nan nan nan nan nan nan nan nan nan nan nan nan nan nan nan nan nan nan nan nan nan nan nan nan nan nan nan nan nan nan nan nan nan nan nan nan nan nan nan nan nan nan nan nan nan nan
nan nan nan nan nan nan nan nan nan nan nan nan nan nan nan nan nan nan nan nan nan nan nan nan nan nan nan nan nan nan nan nan nan nan nan nan nan nan nan nan nan nan nan nan nan nan nan nan nan nan nan nan nan nan nan nan nan nan nan nan nan nan nan nan nan nan nan nan nan nan nan nan nan nan nan nan nan nan nan nan nan nan nan nan nan
nan nan nan nan nan nan nan nan nan nan nan nan nan nan nan nan nan nan nan nan nan nan nan nan nan nan nan nan nan nan nan nan nan nan nan nan nan nan nan nan nan nan nan nan nan nan nan nan nan nan nan nan nan nan nan nan nan nan nan nan nan nan nan nan nan nan nan nan nan nan nan nan nan nan nan nan nan nan nan nan nan nan nan nan nan
nan nan nan nan nan nan nan nan nan nan nan nan nan nan nan nan nan nan nan nan nan nan nan nan nan nan nan nan nan nan nan nan nan nan nan nan nan nan nan nan nan nan nan nan nan nan nan nan nan nan nan nan nan nan nan nan nan nan nan nan nan nan nan nan nan nan nan nan nan nan nan nan nan nan nan nan nan nan nan nan nan nan nan nan nan
nan nan nan nan nan nan nan nan nan nan nan nan nan nan nan nan nan nan nan nan nan nan nan nan nan nan nan nan nan nan nan nan nan nan nan nan nan nan nan nan nan nan nan nan nan nan nan nan nan nan nan nan nan nan nan nan nan nan nan nan nan nan nan nan nan nan nan nan nan nan nan nan nan nan nan nan nan nan nan nan nan nan nan nan nan
nan nan nan nan nan nan nan nan nan nan nan nan nan nan nan nan nan nan nan nan nan nan nan nan nan nan nan nan nan nan nan nan nan nan nan nan nan nan nan nan nan nan nan nan nan nan nan nan nan nan nan nan nan nan nan nan nan nan nan nan nan nan nan nan nan nan nan nan nan nan nan nan nan nan nan nan nan nan nan nan nan nan nan nan nan
nan nan nan nan nan nan nan nan nan nan nan nan nan nan nan nan nan nan nan nan nan nan nan nan nan nan nan nan nan nan nan nan 49 nan nan nan nan nan nan nan nan nan nan nan nan nan nan nan nan nan nan nan nan nan nan nan nan nan nan nan nan nan nan nan nan nan nan nan nan nan nan nan nan nan nan nan nan nan nan nan nan nan nan nan nan
nan nan nan nan nan nan nan nan nan nan nan nan nan nan nan nan nan nan nan nan nan nan nan nan nan nan nan nan 49 51 51 51 53 55 nan nan nan nan nan nan nan nan nan nan nan nan nan nan nan nan nan nan nan nan nan nan nan nan nan nan nan nan nan nan nan nan nan nan nan nan nan nan nan nan nan nan nan nan nan nan nan nan nan nan nan
nan nan nan nan nan nan nan nan nan nan nan nan nan nan nan nan nan nan nan nan nan nan nan nan nan nan nan 50 50 50 51 53 54 nan nan nan nan nan nan nan nan nan nan nan nan nan nan nan nan nan nan nan nan nan nan nan nan nan nan nan nan nan nan nan nan nan nan nan nan nan nan nan nan nan nan nan nan nan nan nan nan nan nan nan nan
nan nan nan nan nan nan nan nan nan nan nan nan nan nan nan nan nan nan nan nan nan nan nan nan nan nan nan nan nan nan 52 52 54 nan nan nan nan nan nan nan nan nan nan nan nan nan nan nan nan nan nan nan nan nan nan nan nan nan nan nan nan nan nan nan nan nan nan nan nan nan nan nan nan nan nan nan nan nan nan nan nan nan nan nan nan
nan nan nan nan nan nan nan nan nan nan nan nan nan nan nan nan nan nan nan nan nan nan nan nan nan nan nan nan nan nan nan nan nan nan nan nan nan nan nan nan nan nan nan nan nan nan nan nan nan nan nan nan nan nan nan nan nan nan nan nan nan nan nan nan nan nan nan nan nan nan nan nan nan nan nan nan nan nan nan nan nan nan nan nan nan
nan nan nan nan nan nan nan nan nan nan nan nan nan nan nan nan nan nan nan nan nan nan nan nan nan nan nan nan nan nan nan nan nan nan nan nan nan nan nan nan nan nan nan nan nan nan nan nan nan nan nan nan nan nan nan nan nan nan nan nan nan nan nan nan nan nan nan nan nan nan nan nan nan nan nan nan nan nan nan nan nan nan nan nan nan
nan nan nan nan nan nan nan nan nan nan nan nan nan nan nan nan nan nan nan nan nan nan nan nan nan nan nan nan nan nan nan nan nan nan nan nan nan nan nan nan nan nan nan nan nan nan nan nan nan nan nan nan nan nan nan nan nan nan nan nan nan nan nan nan nan nan nan nan nan nan nan nan nan nan nan nan nan nan nan nan nan nan nan nan nan
Wind_Direction
208 205 203 205 206 209 216 222 223 226 227 243 237 254 268 284 302 307 305 321 317 353 9 103 154 167 160 170 164 174 177 173 178 176 178 176 163 161 163 180 177 171 214 217 219 256 310 310 276 269 280 323 315 331 351 357 359 355 353 352 353 349 355 360 24 36 23 4 7 351 350 343 351 333 357 341 346 305 357 336 347 346 336 331 324
212 214 210 212 213 218 218 230 231 230 237 246 255 267 276 287 292 293 304 302 295 313 334 314 225 178 171 175 175 175 189 193 171 180 176 183 170 178 216 267 219 206 208 235 295 290 283 312 310 315 330 336 319 316 328 338 337 346 340 341 340 344 340 351 356 5 27 356 336 317 338 318 328 306 302 321 294 328 320 334 329 325 311 310 324
217 219 219 217 219 221 224 234 238 242 246 248 262 272 283 285 287 293 289 282 292 291 304 308 246 218 190 189 197 189 194 191 190 184 184 186 186 178 184 211 242 243 276 292 307 311 318 311 321 316 311 311 308 314 313 311 317 316 324 326 329 338 337 336 336 344 341 324 305 313 300 297 300 302 308 310 318 319 327 296 282 296 306 299 309
222 226 225 225 226 227 230 230 243 249 253 253 261 266 270 278 280 282 278 264 272 283 281 266 271 260 219 208 205 198 201 206 201 202 204 197 195 201 206 208 211 233 247 259 278 305 313 307 305 302 297 296 302 305 312 320 321 329 337 328 332 338 334 336 337 336 327 314 299 290 285 288 296 301 302 305 307 306 317 312 317 327 305 295 297
231 234 233 234 235 232 237 240 242 248 251 253 263 266 266 264 268 271 268 263 262 270 277 273 264 263 253 243 228 223 219 220 224 215 215 227 229 225 233 248 268 275 273 274 270 268 281 283 290 301 306 308 310 316 313 319 322 327 331 324 323 331 331 330 333 333 330 327 317 313 305 310 310 309 309 309 307 315 315 313 309 303 298 299 301
236 238 237 241 242 242 239 244 250 254 254 253 259 261 261 262 262 267 263 261 264 264 265 267 271 269 255 242 239 242 242 240 241 235 235 244 251 252 257 268 277 282 295 308 317 314 312 316 307 309 312 313 307 298 294 294 301 321 330 326 316 298 317 330 335 332 327 324 324 324 322 318 313 307 310 314 312 309 312 311 309 305 309 307 305
245 244 244 244 249 252 252 250 248 253 257 252 252 256 258 260 263 262 265 266 267 265 269 267 258 258 256 250 245 248 249 248 247 251 248 248 250 253 251 259 271 281 296 314 319 324 325 325 320 318 321 316 312 309 308 309 308 307 315 312 303 314 298 290 302 307 315 317 315 315 310 310 308 311 307 308 315 317 315 311 313 312 313 314 318
251 251 249 247 250 257 258 257 254 251 252 255 251 253 258 258 261 259 260 267 265 264 260 263 264 258 251 247 246 244 250 248 253 254 251 250 258 264 267 255 257 274 288 299 311 314 321 323 331 324 325 316 309 308 308 304 301 299 288 280 289 281 292 290 285 300 304 306 300 288 293 305 307 307 310 313 312 312 311 311 313 310 311 314 314
257 256 256 256 254 254 255 257 259 260 258 257 256 253 254 257 261 261 263 260 260 262 261 258 253 250 252 249 245 246 249 257 260 267 269 269 260 263 265 267 270 274 277 279 289 297 287 283 269 277 282 282 290 287 282 275 281 292 292 285 283 292 290 287 286 287 287 289 288 295 304 300 299 300 296 296 299 303 305 308 309 308 304 307 305
258 259 260 259 257 255 254 254 257 262 263 263 261 257 256 258 262 268 266 265 260 253 251 251 249 251 253 255 254 254 253 255 268 269 258 254 265 264 268 275 278 274 265 263 263 263 273 277 283 249 200 299 299 303 307 311 310 302 286 292 290 283 284 279 283 289 296 293 284 283 285 287 287 288 291 292 295 301 302 299 298 295 297 300 302
250 253 254 254 253 253 252 253 255 261 264 264 265 262 258 256 258 259 262 262 258 258 256 254 252 250 251 253 259 257 260 244 233 249 274 288 274 265 266 270 273 269 269 272 272 270 264 277 274 280 286 304 285 270 274 299 312 313 310 301 291 288 289 288 286 289 277 273 275 278 278 277 281 284 291 291 288 288 291 291 290 291 291 291 293
240 244 246 247 249 251 251 254 254 257 259 263 264 265 264 262 260 260 260 262 262 259 260 260 256 252 252 252 252 252 251 259 280 276 273 253 245 255 263 269 265 267 277 279 275 274 273 265 265 265 265 264 279 286 284 273 299 304 303 302 304 306 289 286 286 284 280 276 278 278 281 286 286 286 284 283 285 287 286 287 291 289 288 290 291
244 242 243 244 246 246 248 250 253 252 255 257 259 262 262 263 263 262 262 259 258 261 261 259 261 261 258 254 249 249 242 276 280 270 271 286 279 265 264 254 252 261 261 262 262 262 266 268 263 260 264 271 270 277 276 275 284 298 302 302 298 295 297 297 292 290 284 286 286 285 286 284 286 284 281 282 282 285 284 287 286 289 289 290 285
245 247 247 247 247 245 245 247 250 251 251 251 253 256 258 259 259 259 259 261 259 257 257 259 258 258 256 255 254 254 264 259 252 258 272 276 281 279 273 270 279 272 270 268 270 265 265 270 269 268 267 274 281 282 282 280 284 285 289 295 297 301 300 305 305 300 296 290 286 289 287 288 287 283 282 282 282 281 281 282 283 287 289 286 282
243 245 247 248 248 248 249 251 251 253 253 253 252 253 255 256 257 257 258 259 260 260 259 256 253 254 256 259 259 262 255 247 250 251 257 264 269 275 276 281 278 276 273 273 271 276 271 270 272 270 267 266 274 280 279 281 280 284 287 292 302 296 303 299 296 298 297 294 293 294 293 289 288 287 286 285 283 282 282 283 286 286 289 290 288
241 243 246 248 250 252 251 252 252 254 256 253 255 256 256 257 259 259 257 258 260 262 263 262 259 253 252 251 254 253 259 249 252 253 253 257 262 267 269 272 275 277 278 276 278 275 286 283 273 269 269 265 254 249 253 263 278 280 289 292 291 296 293 280 271 268 268 273 275 276 278 277 277 278 278 279 283 289 297 298 298 297 292 nan nan
241 245 247 250 254 257 256 256 257 256 255 255 255 255 257 259 260 260 262 263 262 262 262 261 260 258 253 249 249 254 257 249 246 247 251 257 263 265 264 265 268 270 274 280 279 272 259 261 270 266 267 265 252 252 252 253 268 273 276 282 281 275 277 272 265 263 271 272 274 274 276 280 281 279 277 273 274 279 288 nan nan nan nan nan nan
244 247 251 254 255 255 255 255 257 257 257 256 254 255 255 258 259 259 259 261 262 260 261 262 261 259 257 255 249 253 257 251 248 248 246 245 250 262 264 263 264 265 265 266 265 266 265 261 259 260 260 259 255 255 251 258 268 270 269 265 265 267 266 273 275 276 275 276 277 279 283 282 280 279 276 274 271 nan 282 nan nan nan nan nan nan
244 244 242 248 253 254 252 254 255 257 257 257 254 254 257 257 257 256 256 259 262 262 260 259 260 262 260 258 255 253 255 253 250 250 251 251 252 261 265 267 268 266 263 265 267 265 268 263 260 261 262 261 258 258 256 257 263 262 264 265 266 269 267 281 282 282 282 282 283 285 284 283 280 280 nan nan nan nan nan nan nan nan nan nan nan
243 246 247 246 246 250 252 252 251 252 258 258 256 256 257 259 260 259 258 258 261 262 262 260 259 258 257 258 257 257 257 255 250 248 251 251 250 256 264 264 264 263 264 261 259 267 267 267 265 263 263 263 262 261 260 258 259 260 258 259 261 262 272 274 276 279 274 271 274 275 274 275 276 nan nan nan nan nan nan nan nan nan nan nan nan
240 242 243 243 246 248 250 250 253 254 255 256 254 254 254 257 263 264 262 261 262 263 264 263 262 261 259 258 258 257 257 259 255 250 250 250 249 251 261 257 258 258 259 267 271 269 268 265 265 262 261 261 260 260 259 258 258 262 263 264 266 265 270 272 269 269 270 271 273 274 276 nan nan nan nan nan nan nan nan nan nan nan nan nan nan
237 241 242 242 242 245 249 252 251 254 255 255 255 256 254 252 257 260 260 262 262 263 263 262 262 262 260 259 260 259 257 256 259 254 252 252 251 250 259 260 258 265 266 266 265 264 262 264 262 263 262 261 262 262 262 262 263 266 266 266 267 269 272 273 275 274 272 272 nan nan nan nan nan nan nan nan nan nan nan nan nan nan nan nan nan
229 231 235 238 239 240 242 248 252 253 255 255 256 254 252 250 255 258 260 259 261 262 260 260 262 263 261 259 261 262 260 260 258 261 257 253 252 254 255 257 254 262 265 265 263 266 267 266 268 264 260 259 262 264 265 269 269 269 268 266 265 265 269 271 nan nan nan nan nan nan nan nan nan nan nan nan nan nan nan nan nan nan nan nan nan
231 232 235 238 242 243 243 244 248 252 257 259 258 258 256 252 251 253 256 258 260 262 263 264 263 262 261 261 263 264 262 262 261 259 258 nan nan nan nan nan nan nan nan nan nan nan 265 265 266 263 260 257 262 263 264 nan nan nan nan nan nan nan nan nan nan nan nan nan nan nan nan nan nan nan nan nan nan nan nan nan nan nan nan nan nan
226 229 231 235 240 243 242 241 242 246 253 260 262 260 257 255 255 256 260 263 264 265 266 268 265 262 259 260 263 263 263 262 263 nan nan nan nan nan nan nan nan nan nan nan nan nan nan nan nan 269 264 262 nan nan nan nan nan nan nan nan nan nan nan nan nan nan nan nan nan nan nan nan nan nan nan nan nan nan nan nan nan nan nan nan nan
241 245 245 241 242 246 249 246 244 243 249 259 264 260 258 257 258 259 261 263 264 266 268 269 266 261 259 260 261 259 258 260 261 nan nan nan nan nan nan nan nan nan nan nan nan nan nan nan nan nan nan nan nan nan nan nan nan nan nan nan nan nan nan nan nan nan nan nan nan nan nan nan nan nan nan nan nan nan nan nan nan nan nan nan nan
267 272 272 nan nan nan nan nan nan nan 263 267 264 259 256 257 259 259 259 259 259 261 263 262 260 260 259 260 260 259 259 nan nan nan nan 261 nan nan nan nan nan nan nan nan nan nan nan nan nan nan nan nan nan nan nan nan nan nan nan nan nan nan nan nan nan nan nan nan nan nan nan nan nan nan nan nan nan nan nan nan nan nan nan nan nan
277 277 nan nan nan nan nan nan nan nan nan nan nan nan nan nan nan 260 256 258 265 268 267 267 nan nan nan nan nan nan nan nan nan nan nan nan nan nan nan nan nan nan nan nan nan nan nan nan nan nan nan nan nan nan nan nan nan nan nan nan nan nan nan nan nan nan nan nan nan nan nan nan nan nan nan nan nan nan nan nan nan nan nan nan nan
nan nan nan nan nan nan nan nan nan nan nan nan nan nan nan nan nan nan nan nan nan nan nan nan nan nan nan nan nan nan nan nan nan nan nan nan nan nan nan nan nan nan nan nan nan nan nan nan nan nan nan nan nan nan nan nan nan nan nan nan nan nan nan nan nan nan nan nan nan nan nan nan nan nan nan nan nan nan nan nan nan nan nan nan nan
nan nan nan nan nan nan nan nan nan nan nan nan nan nan nan nan nan nan nan nan nan nan nan nan nan nan nan nan nan nan nan nan nan nan nan nan nan nan nan nan nan nan nan nan nan nan nan nan nan nan nan nan nan nan nan nan nan nan nan nan nan nan nan nan nan nan nan nan nan nan nan nan nan nan nan nan nan nan nan nan nan nan nan nan nan
nan nan nan nan nan nan nan nan nan nan nan nan nan nan nan nan nan nan nan nan nan nan nan nan nan nan nan nan nan nan nan nan nan nan nan nan nan nan nan nan nan nan nan nan nan nan nan nan nan nan nan nan nan nan nan nan nan nan nan nan nan nan nan nan nan nan nan nan nan nan nan nan nan nan nan nan nan nan nan nan nan nan nan nan nan
nan nan nan nan nan nan nan nan nan nan nan nan nan nan nan nan nan nan nan nan nan nan nan nan nan nan nan nan nan nan nan nan nan nan nan nan nan nan nan nan nan nan nan nan nan nan nan nan nan nan nan nan nan nan nan nan nan nan nan nan nan nan nan nan nan nan nan nan nan nan nan nan nan nan nan nan nan nan nan nan nan nan nan nan nan
262 nan nan nan nan nan nan nan nan nan nan nan nan nan nan nan nan nan nan nan nan nan nan nan nan nan nan nan nan nan nan nan nan nan nan nan nan nan nan nan nan nan nan nan nan nan nan nan nan nan nan nan nan nan nan nan nan nan nan nan nan nan nan nan nan nan nan nan nan nan nan nan nan nan nan nan nan nan nan nan nan nan nan nan nan
261 263 nan nan nan nan nan nan nan nan nan nan nan nan nan nan nan nan nan nan nan nan nan nan nan nan nan nan nan nan nan nan nan nan nan nan nan nan nan nan nan nan nan nan nan nan nan nan nan nan nan nan nan nan nan nan nan nan nan nan nan nan nan nan nan nan nan nan nan nan nan nan nan nan nan nan nan nan nan nan nan nan nan nan nan
nan nan 263 nan nan nan nan nan nan nan nan nan nan nan nan nan nan nan nan nan nan nan nan nan nan nan nan nan nan nan nan nan nan nan nan nan nan nan nan nan nan nan nan nan nan nan nan nan nan nan nan nan nan nan nan nan nan nan nan nan nan nan nan nan nan nan nan nan nan nan nan nan nan nan nan nan nan nan nan nan nan nan nan nan nan
nan nan nan nan nan nan nan nan nan nan nan nan nan nan nan nan nan nan nan nan nan nan nan nan nan nan nan nan nan nan nan nan nan nan nan nan nan nan 274 nan nan nan nan nan nan nan nan nan nan nan nan nan nan nan nan nan nan nan nan nan nan nan nan nan nan nan nan nan nan nan nan nan nan nan nan nan nan nan nan nan nan nan nan nan nan
nan nan nan nan nan nan nan nan nan nan nan nan nan nan nan nan nan nan nan nan nan nan nan nan nan nan nan nan nan nan nan nan nan nan nan nan nan 276 nan nan nan nan nan nan nan nan nan nan nan nan nan nan nan nan nan nan nan nan nan nan nan nan nan nan nan nan nan nan nan nan nan nan nan nan nan nan nan nan nan nan nan nan nan nan nan
nan nan nan 270 nan nan nan nan nan nan nan nan nan nan nan nan nan nan nan nan nan nan nan nan nan nan nan nan nan nan nan nan nan nan nan nan nan nan nan nan nan nan nan nan nan nan nan nan nan nan nan nan nan nan nan nan nan nan nan nan nan nan nan nan nan nan nan nan nan nan nan nan nan nan nan nan nan nan nan nan nan nan nan nan nan
nan nan nan nan nan nan nan nan nan nan nan nan nan nan nan nan nan nan nan nan nan nan nan nan nan nan nan nan nan nan nan nan nan nan nan nan nan nan nan nan nan nan nan nan nan nan nan nan nan nan nan nan nan nan nan nan nan nan nan nan nan nan nan nan nan nan nan nan nan nan nan nan nan nan nan nan nan nan nan nan nan nan nan nan nan
nan nan nan nan nan nan nan nan nan nan nan nan nan nan nan nan nan nan nan nan nan nan nan nan nan nan nan nan nan nan nan nan nan nan nan nan nan nan nan nan nan nan nan nan nan nan nan nan nan nan nan nan nan nan nan nan nan nan nan nan nan nan nan nan nan nan nan nan nan nan nan nan nan nan nan nan nan nan nan nan nan nan nan nan nan
nan nan nan nan nan nan nan nan nan nan nan nan nan nan nan nan nan nan nan nan nan nan nan nan nan nan nan nan nan nan nan nan nan nan nan nan nan nan nan nan nan nan nan nan nan nan nan nan nan nan nan nan nan nan nan nan nan nan nan nan nan nan nan nan nan nan nan nan nan nan nan nan nan nan nan nan nan nan nan nan nan nan nan nan nan
nan nan nan nan nan nan nan nan nan nan nan nan nan nan nan nan nan nan nan nan nan nan nan nan nan nan nan nan nan nan nan nan nan nan nan nan nan nan nan nan nan nan nan nan nan nan nan nan nan nan nan nan nan nan nan nan nan nan nan nan nan nan nan nan nan nan nan nan nan nan nan nan nan nan nan nan nan nan nan nan nan nan nan nan nan
nan nan nan nan nan nan nan nan nan nan nan nan nan nan nan nan nan nan nan nan nan nan nan nan nan nan nan nan nan nan nan nan nan nan nan nan nan nan nan nan nan nan nan nan nan nan nan nan nan nan nan nan nan nan nan nan nan nan nan nan nan nan nan nan nan nan nan nan nan nan nan nan nan nan nan nan nan nan nan nan nan nan nan nan nan
nan nan nan nan nan nan nan nan nan nan nan nan nan nan nan nan nan nan nan nan nan nan nan nan nan nan nan nan nan nan nan nan nan nan nan nan nan nan nan nan nan nan nan nan nan nan nan nan nan nan nan nan nan nan nan nan nan nan nan nan nan nan nan nan nan nan nan nan nan nan nan nan nan nan nan nan nan nan nan nan nan nan nan nan nan
nan nan nan nan nan nan nan nan nan nan nan nan nan nan nan nan nan nan nan nan nan nan nan nan nan nan nan nan nan nan nan nan 287 nan nan nan nan nan nan nan nan nan nan nan nan nan nan nan nan nan nan nan nan nan nan nan nan nan nan nan nan nan nan nan nan nan nan nan nan nan nan nan nan nan nan nan nan nan nan nan nan nan nan nan nan
nan nan nan nan nan nan nan nan nan nan nan nan nan nan nan nan nan nan nan nan nan nan nan nan nan nan nan nan 287 287 286 286 286 286 nan nan nan nan nan nan nan nan nan nan nan nan nan nan nan nan nan nan nan nan nan nan nan nan nan nan nan nan nan nan nan nan nan nan nan nan nan nan nan nan nan nan nan nan nan nan nan nan nan nan nan
nan nan nan nan nan nan nan nan nan nan nan nan nan nan nan nan nan nan nan nan nan nan nan nan nan nan nan 284 283 283 283 284 285 nan nan nan nan nan nan nan nan nan nan nan nan nan nan nan nan nan nan nan nan nan nan nan nan nan nan nan nan nan nan nan nan nan nan nan nan nan nan nan nan nan nan nan nan nan nan nan nan nan nan nan nan
nan nan nan nan nan nan nan nan nan nan nan nan nan nan nan nan nan nan nan nan nan nan nan nan nan nan nan nan nan nan 283 283 284 nan nan nan nan nan nan nan nan nan nan nan nan nan nan nan nan nan nan nan nan nan nan nan nan nan nan nan nan nan nan nan nan nan nan nan nan nan nan nan nan nan nan nan nan nan nan nan nan nan nan nan nan
nan nan nan nan nan nan nan nan nan nan nan nan nan nan nan nan nan nan nan nan nan nan nan nan nan nan nan nan nan nan nan nan nan nan nan nan nan nan nan nan nan nan nan nan nan nan nan nan nan nan nan nan nan nan nan nan nan nan nan nan nan nan nan nan nan nan nan nan nan nan nan nan nan nan nan nan nan nan nan nan nan nan nan nan nan
nan nan nan nan nan nan nan nan nan nan nan nan nan nan nan nan nan nan nan nan nan nan nan nan nan nan nan nan nan nan nan nan nan nan nan nan nan nan nan nan nan nan nan nan nan nan nan nan nan nan nan nan nan nan nan nan nan nan nan nan nan nan nan nan nan nan nan nan nan nan nan nan nan nan nan nan nan nan nan nan nan nan nan nan nan
nan nan nan nan nan nan nan nan nan nan nan nan nan nan nan nan nan nan nan nan nan nan nan nan nan nan nan nan nan nan nan nan nan nan nan nan nan nan nan nan nan nan nan nan nan nan nan nan nan nan nan nan nan nan nan nan nan nan nan nan nan nan nan nan nan nan nan nan nan nan nan nan nan nan nan nan nan nan nan nan nan nan nan nan nan